www.pogodaiklimat.ru

Погода и климат >> Архив погоды >> Мексика >> Кульякан


ПОГОДА в Кульякане

  • Прогноз погоды в Кульякане
  • Монитор погоды в Кульякане

АРХИВ ПОГОДЫ в Кульякане

Время (UTC), дата Ветер
(напр.,м/с)
 
Видим.   Явления Облачность Т
(С)
Тd
(С)
f
(%)
Тe
(С)
Тes
(С)
Комфортность P
(гПа)
Po
(гПа)
Тmin
(С)
Tmax
(С)
R
(мм)
R24
(мм)
S
(см)
06 14.01 ЮЗ 1 16 км 1/0 2000 м
[As trans]
+16.8 +4.7 45 +18 +18 1018.5 1014.0 +14.4 +30.6
09 14.01 ЮЗ 1 16 км 1/0 2000 м
[As trans]
+13.1 +6.3 63 +13 +13 1018.4 1013.9
12 14.01 Ю 1 16 км ясно +12.1 +4.6 60 +12 +12 1018.0 1013.4 +12.1 +30.6
15 14.01 Ю 1 16 км 5/0 2000 м
[As trans]
+16.4 +8.8 61 +17 +18 1018.5 1013.9
18 14.01 З 1 16 км 5/0 2000 м
[As op]
+28.0 +5.6 24 +27 +34 жарко 1019.2 1014.6 +12.1 +28.2
21 14.01 З 2 16 км 8/0 2000 м
[As op]
+30.4 +6.0 22 +29 +32 жарко 1016.6 1012.1
00 15.01 З 2 16 км 9/0 2000 м
[As op]
+23.0 +16.0 65 +27 +28 душно 1018.7 1014.2 +12.1 +31.6
03 15.01 З 2 16 км 9/0 2000 м
[As op]
+23.0 +16.0 65 +27 +27 душно 1018.7 1014.2 +12.1 +31.6
06 15.01 С 2 16 км 9/0 2000 м
[As op]
+19.4 +14.9 75 +22 +22 комфорт 1020.8 1016.3 +12.1 +31.6
09 15.01 В 1 16 км 9/0 2000 м
[As op]
+20.4 +15.3 73 +24 +24 комфорт 1019.0 1014.5
12 15.01 В 1 16 км 8/0 2000 м
[As op]
+19.6 +17.0 85 +23 +23 комфорт 1019.2 1014.7 +19.2 +31.6
15 15.01 штиль 0 16 км 8/0 2000 м
[As op]
+18.4 +17.7 96 +19 +20 1018.6 1014.0
18 15.01 В 1 16 км ясно +22.4 +16.8 71 +27 +38 душно 1017.1 1012.6 +17.6 +31.6
21 15.01 В 1 16 км ясно +28.0 +10.2 33 +28 +38 жарко 1016.3 1011.8
00 16.01 В 1 16 км ясно +28.0 +10.2 33 +28 +29 жарко 1016.3 1011.8
03 16.01 В 1 16 км ясно +23.6 +17.5 69 +28 +28 душно 1015.7 1011.3
06 16.01 В 1 16 км ясно +20.4 +18.1 87 +25 +25 комфорт 1016.2 1011.8 +17.6 +29.6
12 16.01 В 1 16 км ясно +17.4 +16.7 96 +18 +18 1017.5 1013.0 +17.2 +29.6
15 16.01 В 1 16 км ясно +15.0 +13.2 89 +15 +17 1018.4 1013.8
18 16.01 ЮВ 1 16 км ясно +26.2 +13.2 45 +28 +40 жарко 1018.6 1014.0 +13.0 +26.4
21 16.01 ЮВ 1 16 км ясно +30.2 +13.0 35 +31 +41 жарко 1017.7 1013.2
00 17.01 Ю 1 16 км ясно +29.4 +15.0 42 +32 +32 душно 1014.8 1010.3 +13.0 +31.6
03 17.01 штиль 0 16 км ясно +21.2 +17.6 80 +25 +25 комфорт 1015.0 1010.6
06 17.01 штиль 0 16 км ясно +18.2 +17.5 96 +19 +19 1016.9 1012.4 +31.6
15 17.01 В 1 16 км ясно +14.8 +14.3 97 +15 +17 1017.0 1012.4
18 17.01 Ю 1 16 км 4/0 2000 м
[As trans]
+23.9 +16.3 62 +27 +36 жарко 1020.6 1016.0 +12.4 +24.0
21 17.01 ЮЗ 1 16 км 6/0 2000 м
[As trans]
+29.9 +9.5 28 +30 +36 жарко 1018.5 1013.9
00 18.01 ЮЗ 1 16 км 8/0 2000 м
[As op]
+24.9 +16.6 60 +28 +29 жарко 1018.5 1014.0 +12.4 +30.4
03 18.01 ЮВ 1 16 км 8/0 2000 м
[As trans]
+21.3 +18.7 85 +26 +26 душно 1019.8 1015.3
06 18.01 З 1 16 км 8/0 2000 м
[As trans]
+18.4 +17.2 93 +20 +20 1019.9 1015.4 +12.4 +30.4
09 18.01 В 1 16 км 8/0 2000 м
[As trans]
+17.0 +17.0 100 +18 +18 1019.5 1015.0
12 18.01 ЮЗ 1 16 км 8/0
[As trans]
+17.3 +17.3 100 +18 +18 1017.7 1013.2 +17.0
15 18.01 ЮЗ 1 16 км 8/0 2000 м
[As op]
+17.0 +17.0 100 +18 +19 1019.1 1014.5
21 18.01 Ю 1 16 км ясно +29.0 +13.1 38 +31 +40 жарко 1017.5 1013.0
00 19.01 З 2 16 км ясно +26.8 +13.6 44 +29 +29 жарко 1016.9 1012.4 +16.4 +30.0
03 19.01 В 1 16 км ясно +21.9 +19.2 85 +27 +27 душно 1017.6 1012.8
06 19.01 ЮВ 1 16 км ясно +16.4 +15.4 94 +17 +17 1018.1 1013.6 +30.0
09 19.01 В 1 16 км ясно +14.0 +13.3 96 +14 +14 1018.5 1014.0
12 19.01 штиль 0 16 км ясно +11.4 +10.6 95 +11 +11 1017.8 1013.2 +10.6 +30.0
15 19.01 ЮВ 1 16 км ясно +13.0 +12.4 96 +13 +15 1017.2 1012.6
18 19.01 З 1 16 км ясно +24.3 +12.6 48 +26 +38 жарко 1018.5 1013.9 +10.6 +24.4
21 19.01 Ю 1 16 км ясно +30.8 +7.7 24 +30 +40 жарко 1014.5 1009.9
00 20.01 ЮЗ 2 16 км ясно +28.3 +11.9 36 +29 +30 жарко 1014.0 1009.5 +10.6 +31.5

 

Местоположение метеостанции Кульякан (Мексика): широта 24.80 долгота -107.40 высота над уровнем моря 39 м.

В архиве по умолчанию представлена погода в Кульякане за последнюю неделю. Архивные данные за месяц целиком и за предыдущие месяцы, начиная с января 2011 года, Вы можете получить, выбрав интересующий диапазон дат из раскрывающегося списка и нажав кнопку "Ввод!".


*Определитесь, кто Вы:
робот инопланетянин человек

Внимание! Время в таблицах - всемирное. Для получения местного времени необходимо прибавить поправку, которая равна -7 ч.

Смотрите также архив погоды в соседних городах и на ближайших метеорологических станциях:

Погода в Тепеуанесе (Мексика) (180 км)
Погода в Мазатлане (Мексика) (205 км)
Погода в Чойсе (Мексика) (229 км)
Погода в Дуранго (Мексика) (296 км)
Погода в Паррале (Мексика) (298 км)
Погода в Ла-Пасе (Мексика) (302 км)
Погода с Сьюдад-Обрегоне (Мексика) (377 км)
Погода в Сомбререте (Мексика) (407 км)
Погода в Торреоне (Мексика) (411 км)
Погода в Лорето (Мексика) (415 км)

Пояснения к столбцам:

Ветер - указаны скорость ветра в м/с - средняя за 10 мин, порывы в срок и между сроками (в фигурных скобках) и направление, откуда дует ветер: С - северный, СВ - северо-восточный, В - восточный, ЮВ - юго-восточный, Ю - южный, ЮЗ - юго-западный, З - западный, СЗ - северо-западный.
Видимость - горизонтальная дальность видимости в метрах или километрах. При видимости от 1 до 10 км при отсутствии осадков обычно наблюдается дымка, при ухудшении видимости до 1 км и менее - туман. В сухую погоду видимость может ухудшаться дымом, пылью или мглою.
Явления - указаны атмосферные явления, наблюдавшиеся в срок или в последний час перед сроком; фигурными скобками обозначены явления, наблюдавшиеся между сроками (за 1-3 часа до срока); квадратными скобками обозначены град или гололедные отложения с указанием их диаметра в мм.
Облачность - указаны через наклонную черту общая и нижняя облачность в баллах и высота нижней границы облаков в метрах; квадратными скобками обозначены формы облаков: Ci - перистые, Cs - перисто-слоистые, Cc - перисто-кучевые, Ac - высококучевые, As - высокослоистые, Sc - слоисто-кучевые, Ns - слоисто-дождевые, Cu - кучевые, Cb - кучево-дождевые. Подробнее классификацию облаков см. в Атласе облаков (PDF).
T - Температура воздуха - температура, измеренная на высоте 2 м над землей.
Td - Температура точки росы - температура, при понижении до которой содержащийся в воздухе водяной пар достигнет насыщения.
f - Относительная влажность воздуха - влажноcть воздуха, измеренная на высоте 2 м над землей.
Te - Эффективная температура - температура, которую ощущает одетый по сезону человек в тени. Характеристика душности погоды. При расчете учитывается влияние влажности воздуха и скорости ветра на теплоощущения человека.
Tes - Эффективная температура на солнце - температура, которую ощущает человек, с поправкой на солнечный нагрев. Характеристика знойности погоды. Зависит от высоты солнца над горизонтом, облачности и скорости ветра. Ночью, в пасмурную погоду, а также при ветре 12 м/с и более поправка равна нулю.
P - Атмосферное давление - приведенное к уровню моря атмосферное давление.
Po - Атмосферное давление - измеренное на уровне метеостанции атмосферное давление.
Tmin - Минимальная температура - минимум температуры воздуха на высоте 2 м над землей.
Tmax - Максимальная температура - максимум температуры воздуха на высоте 2 м над землей.
R - Количество осадков - Количество выпавших осадков за период времени, мм. При наведении курсора мыши на число - период времени, за который выпало указанное количество осадков.
R24 - Количество осадков - Количество выпавших осадков за 24 часа, мм.
S - Снежный покров - Высота снежного покрова, см. При наведении курсора мыши на число - состояние снежного покрова и степень покрытия местности в баллах.